This is the latest recevied weather packets stored in our database for station/object K6CEG. If no packets are shown the sender has not sent any weather packets the latest 1 day(s).
| Time | Temp. | Humidity | Pressure | Rain* | Wind** | Luminosity | Snow |
|---|---|---|---|---|---|---|---|
| 1778381400 | 20° C | 64% | 1013.5 hPa | 0 mm | - | 0 W/m² | - |
| 1778381096 | 20.56° C | 64% | 1013.3 hPa | 0 mm | - | 0 W/m² | - |
| 1778380792 | 20.56° C | 64% | 1013.5 hPa | 0 mm | - | 0 W/m² | - |
| 1778380185 | 21.11° C | 62% | 1013.2 hPa | 0 mm | - | 3 W/m² | - |
| 1778379584 | 21.11° C | 62% | 1013.3 hPa | 0 mm | - | 9 W/m² | - |
| 1778379282 | 21.67° C | 61% | 1013.3 hPa | 0 mm | - | 10 W/m² | - |
| 1778378979 | 21.67° C | 61% | 1013 hPa | 0 mm | - | 13 W/m² | - |
| 1778378071 | 22.22° C | 59% | 1013.1 hPa | 0 mm | - | 23 W/m² | - |
| 1778377766 | 22.78° C | 59% | 1013.2 hPa | 0 mm | - | 24 W/m² | - |
| 1778377464 | 22.78° C | 58% | 1013.1 hPa | 0 mm | - | 35 W/m² | - |
| 1778377160 | 22.78° C | 57% | 1013.2 hPa | 0 mm | - | 32 W/m² | - |
| 1778376855 | 23.33° C | 56% | 1012.9 hPa | 0 mm | - | 31 W/m² | - |
| 1778376550 | 23.33° C | 56% | 1013 hPa | 0 mm | - | 92 W/m² | - |
| 1778376246 | 23.33° C | 55% | 1012.9 hPa | 0 mm | - | 101 W/m² | - |
| 1778375940 | 23.89° C | 53% | 1013 hPa | 0 mm | - | 32 W/m² | - |
| 1778375030 | 24.44° C | 51% | 1012.8 hPa | 0 mm | - | 29 W/m² | - |
| 1778374726 | 25° C | 50% | 1012.8 hPa | 0 mm | - | 56 W/m² | - |
| 1778374120 | 25° C | 50% | 1012.8 hPa | 0 mm | - | 115 W/m² | - |
| 1778373515 | 25.56° C | 48% | 1012.8 hPa | 0 mm | - | 168 W/m² | - |
| 1778373212 | 26.11° C | 46% | 1012.8 hPa | 0 mm | - | 161 W/m² | - |
| 1778372910 | 26.11° C | 46% | 1012.8 hPa | 0 mm | - | 170 W/m² | - |
| 1778372608 | 26.11° C | 47% | 1012.8 hPa | 0 mm | - | 46 W/m² | - |
| 1778372003 | 26.67° C | 47% | 1012.9 hPa | 0 mm | - | 309 W/m² | - |
| 1778368062 | 27.78° C | 45% | 1013.1 hPa | 0 mm | - | 55 W/m² | - |
| 1778366240 | 27.22° C | 47% | 1013.1 hPa | 0 mm | - | 252 W/m² | - |
* Rain latest hour (hover to see other rain measurements)
** Current wind speed in m/s (hover to see current wind gust speed)